Back to catalog

YAHSAT 1B

AliveCommunicationsGEO
NORAD 38245·PAYLOAD·🇦🇪 UAE

Launched Apr 23, 2012 from Baikonur Cosmodrome

Loading…

TLE

FreshSource: Space-Track

Epoch: Sep 14, 2026, 14:01 UTC

1 38245U 12016A   26257.58454772  .00000119  00000-0  00000-0 0  9997
2 38245   0.0996  89.0265 0000980  75.7249  86.8630  1.00271455 46500

Track YAHSAT 1B in real time with AllMySat

Download on the App Store